Terminal Aerodrome Forecast
Issued by NWS

Home | Current Version | Previous Version | Text Only | Print | Product List | Glossary Off
Versions: 1 2 3 4 5 6 7 8 9 10 11 12 13

000
FTUS42 KMHX 240528
TAFISO
TAF
KISO 240528Z 2406/2506 20003KT P6SM FEW250
     FM241000 VRB02KT 5SM BR FEW250
     FM241200 18006KT P6SM FEW050
      AMD LTD TO CLD VIS AND WIND=

USA.gov is the U.S. government's official web portal to all federal, state and local government web resources and services.